{"data":{"norad_id":47832,"epoch":"2026-05-24T17:42:36.026208Z","epoch_age_seconds":104512,"freshness":"FRESH","line1":"1 47832U 21018AX  26144.73791697 -.00001072  00000+0 -22800-4 0  9999","line2":"2 47832  53.1602 252.0084 0000999  71.0077 289.1033 15.31698689288339","mean_motion":15.31698689,"eccentricity":9.99e-5,"inclination_deg":53.1602,"raan_deg":252.0084,"arg_perigee_deg":71.0077,"mean_anomaly_deg":289.1033,"bstar":-2.28e-5,"rev_number":28833,"period_min":94.013268428148,"perigee_km":470.05970004898,"apogee_km":471.42810645345,"semimajor_km":6848.8809032512,"source":"CELESTRAK","updated_at":"2026-05-25T13:38:16.606181Z"}}